When you browse on this site, cookies collect data to enhance your experience and personalize the content and advertising you see.
Visit our Privacy Policy to learn more. By continuing to use the site, you agree to this use of cookies and data.
  • In Belgium
  • List of Countries
  • For 7 days
  • Water Temperature
  • Satellite Maps
  • Weather Map
  • Weather Widgets
  • user-avatar
    Login

    Hourly Weather De Panne

    Today, 20 November, Tuesday

    Time Temperature Precipitation Wind Pressure Humidity
    00:00 -1°C° 0 mm 11 mps 758 mmHg 77%
    01:00 0°C° 0 mm 10 mps 757 mmHg 77%
    02:00 0°C° 0 mm 10 mps 757 mmHg 77%
    03:00 -2°C° 0 mm 10 mps 756 mmHg 76%
    04:00 -2°C° 0.1 mm 10 mps 756 mmHg 75%
    05:00 -2°C° 0.1 mm 10 mps 756 mmHg 75%
    06:00 -2°C° 0 mm 10 mps 755 mmHg 76%
    07:00 -2°C° 0.1 mm 10 mps 755 mmHg 74%
    08:00 0°C° 0.1 mm 10 mps 755 mmHg 72%
    09:00 0°C° 0.1 mm 10 mps 755 mmHg 70%
    10:00 0°C° 0.1 mm 9 mps 754 mmHg 67%
    11:00 +1°C° 0.1 mm 9 mps 754 mmHg 64%
    12:00 +1°C° 0 mm 9 mps 753 mmHg 61%
    13:00 +1°C° 0 mm 8 mps 753 mmHg 61%
    14:00 +1°C° 0 mm 8 mps 753 mmHg 62%
    15:00 +2°C° 0 mm 7 mps 753 mmHg 63%
    16:00 +2°C° 0.1 mm 7 mps 753 mmHg 65%
    17:00 +2°C° 0.1 mm 7 mps 753 mmHg 67%
    18:00 +2°C° 0.1 mm 7 mps 753 mmHg 70%
    19:00 0°C° 0.2 mm 7 mps 753 mmHg 72%
    20:00 +1°C° 0.2 mm 6 mps 753 mmHg 75%
    21:00 +1°C° 0.2 mm 6 mps 753 mmHg 77%
    22:00 +1°C° 0.1 mm 6 mps 753 mmHg 79%
    23:00 -1°C° 0.1 mm 6 mps 754 mmHg 81%

    Tomorrow, 21 November, Wednesday

    Time Temperature Precipitation Wind Pressure Humidity
    00:00 -1°C° 0.1 mm 6 mps 754 mmHg 83%
    01:00 -1°C° 0 mm 6 mps 754 mmHg 86%
    02:00 -1°C° 0 mm 5 mps 755 mmHg 89%
    03:00 -1°C° 0 mm 5 mps 755 mmHg 91%
    04:00 -2°C° 0 mm 5 mps 756 mmHg 91%
    05:00 -2°C° 0 mm 5 mps 757 mmHg 91%
    06:00 -4°C° 0 mm 5 mps 757 mmHg 90%
    07:00 -2°C° 0 mm 4 mps 758 mmHg 87%
    08:00 -1°C° 0 mm 4 mps 759 mmHg 83%
    09:00 0°C° 0 mm 3 mps 759 mmHg 80%
    10:00 +1°C° 0 mm 3 mps 760 mmHg 75%
    11:00 +2°C° 0 mm 3 mps 760 mmHg 70%
    12:00 +5°C° 0 mm 2 mps 761 mmHg 66%
    13:00 +4°C° 0 mm 2 mps 761 mmHg 68%
    14:00 +4°C° 0 mm 2 mps 761 mmHg 71%
    15:00 +4°C° 0 mm 2 mps 761 mmHg 74%
    16:00 +4°C° 0 mm 2 mps 761 mmHg 78%
    17:00 +3°C° 0 mm 2 mps 762 mmHg 82%
    18:00 +1°C° 0 mm 3 mps 762 mmHg 86%
    19:00 +1°C° 0 mm 3 mps 762 mmHg 86%
    20:00 +1°C° 0 mm 3 mps 762 mmHg 87%
    21:00 +1°C° 0 mm 3 mps 762 mmHg 87%
    22:00 +1°C° 0 mm 3 mps 762 mmHg 88%
    23:00 +1°C° 0 mm 3 mps 762 mmHg 88%

    Day after tomorrow, 22 November, Thursday

    Time Temperature Precipitation Wind Pressure Humidity
    00:00 +1°C° 0 mm 3 mps 762 mmHg 88%
    01:00 +1°C° 0 mm 3 mps 762 mmHg 89%
    02:00 0°C° 0 mm 3 mps 762 mmHg 90%
    03:00 0°C° 0 mm 3 mps 762 mmHg 91%
    04:00 0°C° 0 mm 3 mps 762 mmHg 91%
    05:00 0°C° 0 mm 3 mps 762 mmHg 91%
    06:00 0°C° 0 mm 3 mps 762 mmHg 91%
    07:00 0°C° 0 mm 3 mps 762 mmHg 89%
    08:00 +1°C° 0 mm 3 mps 762 mmHg 87%
    09:00 +1°C° 0 mm 3 mps 762 mmHg 85%
    10:00 +2°C° 0 mm 3 mps 762 mmHg 81%
    11:00 +3°C° 0 mm 3 mps 762 mmHg 77%
    12:00 +5°C° 0 mm 3 mps 762 mmHg 74%
    13:00 +4°C° 0 mm 3 mps 762 mmHg 76%
    14:00 +4°C° 0 mm 3 mps 762 mmHg 78%
    15:00 +4°C° 0 mm 3 mps 762 mmHg 80%
    16:00 +3°C° 0 mm 3 mps 762 mmHg 83%
    17:00 +3°C° 0 mm 4 mps 762 mmHg 85%
    18:00 +1°C° 0 mm 4 mps 762 mmHg 88%
    19:00 +1°C° 0 mm 4 mps 762 mmHg 89%
    20:00 +1°C° 0 mm 4 mps 762 mmHg 90%
    21:00 +1°C° 0 mm 4 mps 762 mmHg 91%
    22:00 +1°C° 0 mm 4 mps 762 mmHg 92%
    23:00 +1°C° 0 mm 4 mps 762 mmHg 92%

    23 November, Friday

    Time Temperature Precipitation Wind Pressure Humidity
    00:00 +1°C° 0 mm 4 mps 762 mmHg 93%
    01:00 +1°C° 0 mm 4 mps 762 mmHg 94%
    02:00 +1°C° 0 mm 4 mps 762 mmHg 94%
    03:00 +1°C° 0 mm 4 mps 762 mmHg 95%
    04:00 +1°C° 0 mm 4 mps 762 mmHg 95%
    05:00 +1°C° 0 mm 4 mps 761 mmHg 95%
    06:00 +1°C° 0 mm 4 mps 761 mmHg 95%
    07:00 +3°C° 0 mm 4 mps 761 mmHg 94%
    08:00 +3°C° 0 mm 4 mps 761 mmHg 92%
    09:00 +3°C° 0 mm 4 mps 761 mmHg 91%
    10:00 +5°C° 0 mm 4 mps 761 mmHg 88%
    11:00 +7°C° 0 mm 3 mps 761 mmHg 85%
    12:00 +8°C° 0 mm 3 mps 761 mmHg 82%
    13:00 +8°C° 0 mm 3 mps 760 mmHg 85%
    14:00 +7°C° 0 mm 2 mps 760 mmHg 87%
    15:00 +7°C° 0 mm 2 mps 760 mmHg 89%
    16:00 +6°C° 0 mm 2 mps 760 mmHg 91%
    17:00 +5°C° 0 mm 3 mps 760 mmHg 92%
    18:00 +4°C° 0 mm 3 mps 760 mmHg 93%
    19:00 +4°C° 0 mm 3 mps 760 mmHg 94%
    20:00 +5°C° 0 mm 2 mps 760 mmHg 94%
    21:00 +4°C° 0 mm 2 mps 760 mmHg 94%
    22:00 +4°C° 0 mm 2 mps 760 mmHg 94%
    23:00 +4°C° 0 mm 2 mps 759 mmHg 95%

    24 November, Saturday

    Time Temperature Precipitation Wind Pressure Humidity
    00:00 +4°C° 0 mm 2 mps 759 mmHg 95%
    01:00 +4°C° 0 mm 2 mps 759 mmHg 95%
    02:00 +4°C° 0 mm 2 mps 759 mmHg 95%
    03:00 +4°C° 0 mm 2 mps 759 mmHg 95%
    04:00 +4°C° 0.1 mm 2 mps 759 mmHg 95%
    05:00 +4°C° 0.1 mm 2 mps 759 mmHg 96%
    06:00 +4°C° 0.1 mm 2 mps 759 mmHg 96%
    07:00 +4°C° 0.2 mm 2 mps 759 mmHg 95%
    08:00 +4°C° 0.2 mm 2 mps 759 mmHg 95%
    09:00 +5°C° 0.2 mm 2 mps 759 mmHg 95%
    10:00 +5°C° 0.2 mm 2 mps 759 mmHg 94%
    11:00 +5°C° 0.2 mm 2 mps 759 mmHg 93%
    12:00 +6°C° 0.2 mm 2 mps 759 mmHg 92%
    13:00 +6°C° 0.6 mm 2 mps 759 mmHg 94%
    14:00 +5°C° 0.6 mm 2 mps 758 mmHg 95%
    15:00 +6°C° 0.6 mm 1 mps 758 mmHg 96%
    16:00 +5°C° 0.6 mm 2 mps 758 mmHg 97%
    17:00 +5°C° 0.6 mm 2 mps 759 mmHg 97%
    18:00 +5°C° 0.6 mm 2 mps 759 mmHg 97%
    19:00 +5°C° 0.3 mm 2 mps 759 mmHg 97%
    20:00 +5°C° 0.3 mm 2 mps 759 mmHg 97%
    21:00 +5°C° 0.3 mm 2 mps 759 mmHg 97%
    22:00 +5°C° 0.1 mm 2 mps 759 mmHg 97%
    23:00 +5°C° 0.1 mm 2 mps 759 mmHg 97%

    25 November, Sunday

    Time Temperature Precipitation Wind Pressure Humidity
    00:00 +4°C° 0.1 mm 2 mps 759 mmHg 97%
    01:00 +4°C° 0 mm 2 mps 759 mmHg 96%
    02:00 +3°C° 0 mm 3 mps 759 mmHg 96%
    03:00 +4°C° 0 mm 3 mps 758 mmHg 96%
    04:00 +4°C° 0 mm 3 mps 758 mmHg 96%
    05:00 +4°C° 0 mm 4 mps 758 mmHg 96%
    06:00 +4°C° 0 mm 4 mps 757 mmHg 95%
    07:00 +5°C° 0 mm 5 mps 757 mmHg 94%
    08:00 +5°C° 0 mm 5 mps 757 mmHg 92%
    09:00 +4°C° 0 mm 6 mps 757 mmHg 91%
    10:00 +4°C° 0.1 mm 6 mps 756 mmHg 89%
    11:00 +5°C° 0.1 mm 7 mps 756 mmHg 88%
    12:00 +5°C° 0.1 mm 7 mps 755 mmHg 86%
    13:00 +5°C° 0.4 mm 8 mps 754 mmHg 87%
    14:00 +5°C° 0.4 mm 9 mps 753 mmHg 88%
    15:00 +5°C° 0.4 mm 9 mps 752 mmHg 88%
    16:00 +5°C° 1 mm 9 mps 752 mmHg 89%
    17:00 +5°C° 1 mm 10 mps 752 mmHg 90%
    18:00 +3°C° 1 mm 10 mps 751 mmHg 90%
    19:00 +3°C° 0.6 mm 10 mps 751 mmHg 90%
    20:00 +3°C° 0.6 mm 10 mps 750 mmHg 90%
    21:00 +3°C° 0.6 mm 10 mps 750 mmHg 90%
    22:00 +3°C° 0.1 mm 9 mps 750 mmHg 90%
    23:00 +3°C° 0.1 mm 9 mps 750 mmHg 90%
    Show more